| time (UTC) | temp C | wind direction | speed KPH | gust KPH | rain 1hr cm | rain 24hr cm | rain mn cm | humidity % | barometer mb |
| 20260508064511 | 6 | 6 | 3.2 | 14.5 | 0.00 | 1.65 | 0.00 | 95 | 1001.1 |
| 20260508063007 | 6 | 353 | 4.8 | 14.5 | 0.00 | 1.65 | 0.00 | 95 | 1001.3 |
| 20260508061510 | 6 | 10 | 1.6 | 9.7 | 0.00 | 1.65 | 0.00 | 95 | 1001.1 |
| 20260508060005 | 5 | 251 | 0.0 | 0.0 | 0.00 | 1.65 | 0.00 | 95 | 1000.9 |
| 20260508054504 | 4 | 251 | 0.0 | 0.0 | 0.00 | 1.65 | 0.00 | 95 | 1001.0 |
| 20260508053002 | 4 | 251 | 0.0 | 0.0 | 0.00 | 1.65 | 0.00 | 95 | 1001.0 |
| 20260508051502 | 5 | 251 | 1.6 | 3.2 | 0.00 | 1.65 | 0.00 | 95 | 1000.9 |
| 20260508044607 | 5 | 251 | 0.0 | 0.0 | 0.00 | 1.65 | 0.00 | 95 | 1001.2 |
| 20260508043108 | 6 | 251 | 0.0 | 0.0 | 0.00 | 1.65 | 0.00 | 95 | 1001.2 |
| 20260508041556 | 6 | 251 | 0.0 | 0.0 | 0.00 | 1.65 | 0.00 | 95 | 1001.3 |
| 20260508040059 | 6 | 251 | 0.0 | 0.0 | 0.00 | 1.65 | 0.00 | 95 | 1001.5 |
| 20260508034555 | 6 | 251 | 0.0 | 3.2 | 0.00 | 1.65 | 0.00 | 95 | 1001.5 |
| 20260508033049 | 6 | 251 | 0.0 | 3.2 | 0.00 | 1.65 | 0.00 | 95 | 1001.7 |
| 20260508031548 | 6 | 243 | 0.0 | 3.2 | 0.00 | 1.65 | 0.00 | 95 | 1001.6 |
| 20260508030056 | 6 | 246 | 0.0 | 4.8 | 0.00 | 1.65 | 0.00 | 95 | 1001.6 |
| 20260508024547 | 6 | 249 | 0.0 | 4.8 | 0.00 | 1.65 | 1.65 | 95 | 1001.5 |
| 20260508023045 | 6 | 249 | 1.6 | 6.4 | 0.00 | 1.65 | 1.65 | 95 | 1001.3 |
| 20260508021544 | 6 | 245 | 1.6 | 9.7 | 0.00 | 1.65 | 1.65 | 95 | 1001.4 |
| 20260508020047 | 6 | 241 | 1.6 | 8.0 | 0.03 | 1.65 | 1.65 | 95 | 1001.6 |
| 20260508014546 | 6 | 230 | 4.8 | 14.5 | 0.03 | 1.65 | 1.65 | 95 | 1001.6 |
| 20260508013041 | 5 | 220 | 3.2 | 9.7 | 0.03 | 1.65 | 1.65 | 95 | 1001.5 |
| 20260508011543 | 5 | 190 | 3.2 | 12.9 | 0.03 | 1.65 | 1.65 | 95 | 1001.7 |
| 20260508010139 | 5 | 178 | 3.2 | 9.7 | 0.00 | 1.65 | 1.65 | 94 | 1002.0 |
| 20260508004535 | 6 | 179 | 4.8 | 12.9 | 0.00 | 1.65 | 1.65 | 95 | 1002.3 |
| 20260508003035 | 6 | 176 | 6.4 | 17.7 | 0.00 | 1.65 | 1.65 | 95 | 1002.2 |
| 20260508001535 | 6 | 180 | 6.4 | 14.5 | 0.00 | 1.65 | 1.65 | 95 | 1002.4 |
| 20260508000032 | 6 | 207 | 1.6 | 9.7 | 0.00 | 1.65 | 1.65 | 95 | 1002.9 |
| 20260507234531 | 5 | 202 | 4.8 | 12.9 | 0.03 | 1.65 | 1.65 | 94 | 1002.4 |
| 20260507233033 | 6 | 193 | 4.8 | 12.9 | 0.03 | 1.65 | 1.65 | 95 | 1002.8 |
| 20260507231538 | 6 | 197 | 3.2 | 14.5 | 0.03 | 1.65 | 1.65 | 95 | 1002.9 |
| 20260507230029 | 6 | 185 | 4.8 | 16.1 | 0.03 | 1.65 | 1.65 | 95 | 1002.8 |
| 20260507224528 | 6 | 180 | 6.4 | 14.5 | 0.03 | 1.63 | 1.63 | 95 | 1002.9 |
| 20260507223028 | 6 | 179 | 3.2 | 16.1 | 0.05 | 1.63 | 1.63 | 95 | 1002.9 |
| 20260507221530 | 6 | 191 | 6.4 | 16.1 | 0.15 | 1.63 | 1.63 | 95 | 1003.3 |
| 20260507220026 | 6 | 189 | 3.2 | 14.5 | 0.30 | 1.63 | 1.63 | 94 | 1002.9 |
| 20260507214525 | 5 | 131 | 16.1 | 20.9 | 0.41 | 1.60 | 1.60 | 94 | 1002.6 |
| 20260507213027 | 6 | 181 | 4.8 | 12.9 | 0.58 | 1.57 | 1.57 | 95 | 1003.6 |
| 20260507211520 | 6 | 197 | 3.2 | 12.9 | 0.61 | 1.45 | 1.45 | 94 | 1004.0 |
| 20260507210018 | 7 | 159 | 4.8 | 24.1 | 0.79 | 1.32 | 1.32 | 95 | 1004.6 |
| 20260507204517 | 7 | 182 | 6.4 | 27.4 | 0.81 | 1.19 | 1.19 | 95 | 1004.9 |
| 20260507203016 | 6 | 122 | 11.3 | 24.1 | 0.71 | 0.99 | 0.99 | 94 | 1004.2 |
| 20260507201516 | 6 | 207 | 9.7 | 20.9 | 0.69 | 0.86 | 0.86 | 94 | 1004.7 |
| 20260507200012 | 6 | 185 | 9.7 | 22.5 | 0.43 | 0.51 | 0.51 | 94 | 1005.1 |
| 20260507194512 | 6 | 179 | 11.3 | 25.7 | 0.33 | 0.38 | 0.38 | 94 | 1005.1 |
| 20260507193009 | 6 | 134 | 17.7 | 32.2 | 0.23 | 0.25 | 0.25 | 94 | 1005.3 |
| 20260507191506 | 6 | 173 | 14.5 | 25.7 | 0.18 | 0.18 | 0.18 | 94 | 1005.8 |
| 20260507190006 | 6 | 189 | 16.1 | 32.2 | 0.10 | 0.10 | 0.10 | 94 | 1005.9 |
| 20260507184504 | 6 | 149 | 17.7 | 32.2 | 0.05 | 0.05 | 0.05 | 94 | 1005.7 |
| 20260507183009 | 6 | 207 | 12.9 | 27.4 | 0.03 | 0.03 | 0.03 | 94 | 1005.6 |
| 20260507181503 | 6 | 150 | 17.7 | 32.2 | 0.00 | 0.00 | 0.00 | 94 | 1005.7 |
| 20260507180001 | 6 | 143 | 19.3 | 30.6 | 0.00 | 0.00 | 0.00 | 94 | 1005.8 |
| 20260507174608 | 7 | 156 | 16.1 | 25.7 | 0.00 | 0.00 | 0.00 | 94 | 1006.3 |
| 20260507173103 | 6 | 207 | 16.1 | 27.4 | 0.00 | 0.00 | 0.00 | 93 | 1006.6 |
| 20260507173002 | 6 | 165 | 14.5 | 25.7 | 0.00 | 0.00 | 0.00 | 93 | 1006.6 |
| 20260507171613 | 7 | 150 | 20.9 | 29.0 | 0.00 | 0.00 | 0.00 | 93 | 1006.7 |
| 20260507170058 | 7 | 110 | 14.5 | 27.4 | 0.00 | 0.00 | 0.00 | 93 | 1007.3 |
| 20260507164606 | 7 | 178 | 14.5 | 29.0 | 0.00 | 0.00 | 0.00 | 93 | 1007.4 |
| 20260507163149 | 7 | 158 | 11.3 | 25.7 | 0.00 | 0.00 | 0.00 | 93 | 1008.1 |
| 20260507161547 | 7 | 153 | 16.1 | 29.0 | 0.00 | 0.00 | 0.00 | 93 | 1008.4 |
| 20260507160046 | 7 | 164 | 19.3 | 32.2 | 0.00 | 0.00 | 0.00 | 94 | 1008.6 |
| 20260507154544 | 7 | 207 | 12.9 | 27.4 | 0.00 | 0.00 | 0.00 | 93 | 1008.7 |
| 20260507153048 | 7 | 185 | 16.1 | 27.4 | 0.00 | 0.00 | 0.00 | 94 | 1009.1 |
| 20260507151543 | 7 | 172 | 16.1 | 33.8 | 0.00 | 0.00 | 0.00 | 94 | 1009.7 |
| 20260507150038 | 7 | 156 | 17.7 | 33.8 | 0.00 | 0.00 | 0.00 | 93 | 1009.7 |
| 20260507144536 | 7 | 165 | 12.9 | 25.7 | 0.00 | 0.00 | 0.00 | 93 | 1010.1 |
| 20260507143036 | 7 | 156 | 12.9 | 35.4 | 0.00 | 0.00 | 0.00 | 94 | 1010.6 |
| 20260507141534 | 7 | 145 | 17.7 | 37.0 | 0.00 | 0.00 | 0.00 | 94 | 1010.7 |
| 20260507140032 | 7 | 183 | 19.3 | 41.8 | 0.00 | 0.00 | 0.00 | 94 | 1010.7 |
| 20260507134537 | 7 | 173 | 17.7 | 37.0 | 0.00 | 0.00 | 0.00 | 94 | 1010.9 |
| 20260507133029 | 7 | 191 | 11.3 | 29.0 | 0.00 | 0.00 | 0.00 | 94 | 1011.3 |
| 20260507131534 | 7 | 125 | 20.9 | 33.8 | 0.00 | 0.00 | 0.00 | 94 | 1011.1 |
| 20260507130026 | 6 | 145 | 14.5 | 29.0 | 0.00 | 0.00 | 0.00 | 94 | 1011.1 |
| 20260507124522 | 6 | 160 | 16.1 | 25.7 | 0.00 | 0.00 | 0.00 | 94 | 1011.1 |
| 20260507123021 | 6 | 169 | 17.7 | 30.6 | 0.00 | 0.00 | 0.00 | 94 | 1012.0 |
| 20260507121517 | 6 | 185 | 12.9 | 29.0 | 0.00 | 0.00 | 0.00 | 94 | 1012.5 |
| 20260507120016 | 6 | 164 | 14.5 | 32.2 | 0.00 | 0.00 | 0.00 | 94 | 1012.8 |
| 20260507114524 | 6 | 142 | 14.5 | 29.0 | 0.00 | 0.00 | 0.00 | 94 | 1013.0 |
| 20260507113012 | 6 | 223 | 16.1 | 27.4 | 0.00 | 0.00 | 0.00 | 94 | 1013.3 |
| 20260507111519 | 6 | 156 | 11.3 | 27.4 | 0.00 | 0.00 | 0.00 | 94 | 1012.7 |
| 20260507110009 | 6 | 147 | 8.0 | 25.7 | 0.00 | 0.00 | 0.00 | 94 | 1013.2 |
| 20260507104506 | 6 | 143 | 8.0 | 25.7 | 0.00 | 0.00 | 0.00 | 94 | 1013.7 |
| 20260507103002 | 6 | 166 | 6.4 | 17.7 | 0.00 | 0.00 | 0.00 | 93 | 1013.4 |
| 20260507101503 | 6 | 216 | 4.8 | 17.7 | 0.00 | 0.00 | 0.00 | 94 | 1013.7 |
| 20260507100059 | 6 | 176 | 6.4 | 20.9 | 0.00 | 0.00 | 0.00 | 93 | 1013.4 |
| 20260507094610 | 6 | 188 | 6.4 | 16.1 | 0.00 | 0.00 | 0.00 | 93 | 1013.3 |
| 20260507093058 | 7 | 195 | 4.8 | 22.5 | 0.00 | 0.00 | 0.00 | 93 | 1013.7 |
| 20260507091613 | 7 | 179 | 9.7 | 22.5 | 0.00 | 0.00 | 0.00 | 94 | 1014.0 |
| 20260507090057 | 7 | 202 | 6.4 | 17.7 | 0.00 | 0.00 | 0.00 | 93 | 1013.8 |
| 20260507084553 | 7 | 212 | 9.7 | 19.3 | 0.00 | 0.00 | 0.00 | 93 | 1013.8 |
| 20260507083044 | 7 | 233 | 3.2 | 17.7 | 0.00 | 0.00 | 0.00 | 93 | 1013.8 |
| 20260507081543 | 8 | 195 | 8.0 | 20.9 | 0.00 | 0.00 | 0.00 | 93 | 1014.3 |
| 20260507080040 | 8 | 195 | 8.0 | 19.3 | 0.00 | 0.00 | 0.00 | 93 | 1014.5 |
| 20260507074544 | 7 | 156 | 4.8 | 14.5 | 0.00 | 0.00 | 0.00 | 93 | 1014.5 |
| 20260507073037 | 7 | 188 | 3.2 | 14.5 | 0.00 | 0.00 | 0.00 | 93 | 1014.8 |
| 20260507071537 | 7 | 236 | 4.8 | 14.5 | 0.00 | 0.00 | 0.00 | 94 | 1014.9 |
| 20260507070039 | 7 | 194 | 4.8 | 14.5 | 0.00 | 0.00 | 0.00 | 94 | 1015.1 |